Location: Eboldshausen
(51.7766°N, 10.0050°E)
Time: 06:57:52
(UTC+00:00)

Cosmos 1975 Rocket - Pass Details

Date: 15 November 2025
Orbit: 598 x 626 km, 82.5° (Epoch: 10 December)

Event Time Altitude Azimuth Distance (km) Brightness Sun altitude
Rises 16:55:22 0° 348° (NNW) 2,868 6.5 -13.2°
Reaches altitude 10° 16:57:34 10° 348° (NNW) 1,963 5.6 -13.5°
Maximum altitude 17:01:55 83° 263° (W) 619 3.1 -14.2°
Drops below altitude 10° 17:06:16 10° 174° (S) 1,963 5.7 -14.8°
Sets 17:08:29 0° 174° (S) 2,868 6.5 -15.1°
